Location: *
(45.4590°N, 16.3650°E)
Time: 10:16:10
(UTC+00:00)

Cosmos 1727 Rocket - Pass Details

Date: 17 January 2020
Orbit: 960 x 997 km, 82.9° (Epoch: 16 February)

Event Time Altitude Azimuth Distance (km) Brightness Sun altitude
Rises 17:35:49 0° 357° (N) 3,675 7.0 -20.0°
Reaches altitude 10° 17:38:33 10° 6° (N) 2,719 6.2 -20.4°
Enters shadow 17:43:27 36° 55° (NE) 1,483 4.5 -21.3°
